This is the latest recevied weather packets stored in our database for station/object KD4IZ-13. If no packets are shown the sender has not sent any weather packets the latest 10 day(s).
| Time | Temp. | Humidity | Pressure | Rain* | Wind** | Luminosity | Snow |
|---|---|---|---|---|---|---|---|
| 1778031331 | 22.78° C | 44% | 1011.9 hPa | 0 mm | - | 0 W/m² | - |
| 1778031027 | 22.78° C | 43% | 1011.8 hPa | 0 mm | - | 0 W/m² | - |
| 1778030723 | 22.78° C | 43% | 1011.8 hPa | 0 mm | - | 0 W/m² | - |
| 1778030420 | 23.33° C | 42% | 1011.7 hPa | 0 mm | - | 0 W/m² | - |
| 1778030118 | 22.78° C | 43% | 1011.5 hPa | 0 mm | - | 0 W/m² | - |
| 1778029814 | 22.78° C | 41% | 1011.7 hPa | 0 mm | - | 0 W/m² | - |
| 1778029508 | 22.78° C | 42% | 1011.3 hPa | 0 mm | - | 0 W/m² | - |
| 1778029204 | 23.33° C | 42% | 1011.3 hPa | 0 mm | - | 0 W/m² | - |
| 1778028901 | 23.89° C | 41% | 1011.3 hPa | 0 mm | - | 0 W/m² | - |
| 1778028596 | 23.89° C | 40% | 1011.4 hPa | 0 mm | - | 0 W/m² | - |
| 1778028295 | 23.89° C | 40% | 1011.1 hPa | 0 mm | - | 0 W/m² | - |
| 1778027990 | 23.89° C | 40% | 1011.2 hPa | 0 mm | - | 0 W/m² | - |
| 1778027687 | 23.89° C | 40% | 1010.9 hPa | 0 mm | - | 0 W/m² | - |
| 1778027383 | 23.89° C | 40% | 1011 hPa | 0 mm | - | 0 W/m² | - |
| 1778027080 | 23.89° C | 40% | 1011.1 hPa | 0 mm | - | 0 W/m² | - |
| 1778026775 | 23.89° C | 40% | 1010.9 hPa | 0 mm | - | 0 W/m² | - |
| 1778026472 | 23.89° C | 41% | 1011.1 hPa | 0 mm | - | 0 W/m² | - |
| 1778026170 | 24.44° C | 40% | 1011.2 hPa | 0 mm | - | 0 W/m² | - |
| 1778025867 | 24.44° C | 40% | 1011.2 hPa | 0 mm | - | 1 W/m² | - |
| 1778025564 | 24.44° C | 40% | 1011 hPa | 0 mm | - | 3 W/m² | - |
| 1778025262 | 24.44° C | 39% | 1011.1 hPa | 0 mm | - | 7 W/m² | - |
| 1778024958 | 24.44° C | 40% | 1011 hPa | 0 mm | - | 12 W/m² | - |
| 1778024656 | 24.44° C | 40% | 1010.9 hPa | 0 mm | - | 17 W/m² | - |
| 1778024352 | 25° C | 40% | 1010.7 hPa | 0 mm | - | 23 W/m² | - |
| 1778024050 | 25° C | 39% | 1010.8 hPa | 0 mm | - | 28 W/m² | - |
* Rain latest hour (hover to see other rain measurements)
** Current wind speed in m/s (hover to see current wind gust speed)